Nederland, TX

11:30 AM CDT on August 27, 2016 (GMT -0500)
Southeast Texas Regional

Weather History for KBPT - March, 2013

Change the Weather History Date:

Wednesday, March 20, 2013

  Actual Average Record
Temperature  
Mean Temperature 65 °F 63 °F  
Max Temperature 75 °F 73 °F 84 °F (2015)
Min Temperature 54 °F 53 °F 28 °F (1965)
Degree Days  
Heating Degree Days 0 4  
Month to date heating degree days 141 111  
Since 1 July heating degree days 1113 1324  
Cooling Degree Days 0 2  
Month to date cooling degree days 18 29  
Year to date cooling degree days 48 55  
Growing Degree Days 15 (Base 50)    
Moisture  
Dew Point 44 °F    
Average Humidity 59    
Maximum Humidity 93    
Minimum Humidity 25    
Precipitation  
Precipitation 0.34 in 0.11 in 4.22 in (2012)
Month to date precipitation 0.42 2.27  
Year to date precipitation 11.94 11.11  
Snow  
Snow 0.00 in 0.00 in 0.00 in ()
Month to date snowfall 0.0 0.0  
Since 1 July snowfall 0.0 T  
Snow Depth 0.00 in    
Sea Level Pressure  
Sea Level Pressure 30.10 in    
Wind  
Wind Speed 13 mph (NNE)    
Max Wind Speed 25 mph    
Max Gust Speed 32 mph    
Visibility 9 miles    
Events Rain    
T = Trace of Precipitation, MM = Missing Value Source: NWS Daily Summary

Daily Weather History Graph

Daily Weather History Graph

Search for Another Location

Airport or City:

Trip Planner

Search our weather history database for the weather conditions in past years. The results will help you decide how hot, cold, wet, or windy it might be!

Date:

Astronomy

Mar. 20, 2013 Rise Set
Actual Time 7:19 AM CDT 7:27 PM CDT
Civil Twilight 6:55 AM CDT 7:51 PM CDT
Nautical Twilight 6:27 AM CDT 8:19 PM CDT
Astronomical Twilight 5:59 AM CDT 8:47 PM CDT
Moon 1:26 PM CDT (3/20) 2:36 AM CDT (3/20)
Length of Visible Light 12h 55m
Length of Day
12h 08m
First Quarter, 59% of the Moon is Illuminated
Mar 20
First Quarter
Mar 27
Full
Apr 2
Last Quarter
Apr 10
New
Apr 18
First Quarter

Hourly Weather History & Observations

Time (CDT) Temp. Dew Point Humidity Pressure Visibility Wind Dir Wind Speed Gust Speed Precip Events Conditions
12:53 AM 66.9 °F 57.0 °F 70% 29.99 in 10.0 mi East 8.1 mph - N/A   Overcast
1:53 AM 66.0 °F 44.1 °F 45% 30.00 in 10.0 mi NE 16.1 mph 20.7 mph N/A   Overcast
2:53 AM 64.0 °F 43.0 °F 46% 30.04 in 10.0 mi North 13.8 mph - N/A   Overcast
3:53 AM 62.1 °F 39.0 °F 43% 30.06 in 10.0 mi North 16.1 mph - N/A   Clear
4:53 AM 61.0 °F 37.9 °F 42% 30.06 in 10.0 mi NNE 18.4 mph 26.5 mph N/A   Partly Cloudy
5:53 AM 59.0 °F 46.0 °F 62% 30.10 in 10.0 mi NNE 15.0 mph 24.2 mph N/A   Overcast
6:53 AM 55.0 °F 52.0 °F 89% 30.12 in 4.0 mi NE 13.8 mph - 0.20 in Rain Light Rain
7:53 AM 55.0 °F 53.1 °F 93% 30.13 in 4.0 mi ENE 8.1 mph - 0.06 in Rain Rain
8:53 AM 57.0 °F 53.1 °F 87% 30.14 in 10.0 mi NE 3.5 mph - 0.08 in   Partly Cloudy
9:21 AM 57.2 °F 53.6 °F 88% 30.16 in 10.0 mi North 16.1 mph - N/A   Scattered Clouds
9:30 AM 55.4 °F 53.6 °F 94% 30.16 in 10.0 mi North 15.0 mph 19.6 mph N/A   Mostly Cloudy
9:53 AM 55.0 °F 51.1 °F 86% 30.17 in 10.0 mi NNE 18.4 mph 23.0 mph N/A   Overcast
10:11 AM 55.4 °F 51.8 °F 88% 30.17 in 10.0 mi NNE 15.0 mph 25.3 mph N/A   Mostly Cloudy
10:53 AM 57.9 °F 50.0 °F 75% 30.17 in 10.0 mi NNE 16.1 mph - N/A   Scattered Clouds
11:53 AM 63.0 °F 50.0 °F 63% 30.18 in 10.0 mi NE 16.1 mph - N/A   Clear
12:53 PM 66.9 °F 50.0 °F 54% 30.15 in 10.0 mi NE 16.1 mph 23.0 mph N/A   Clear
1:53 PM 71.1 °F 44.1 °F 38% 30.12 in 10.0 mi NE 16.1 mph 26.5 mph N/A   Clear
2:53 PM 73.0 °F 39.9 °F 30% 30.09 in 10.0 mi NE 15.0 mph 25.3 mph N/A   Clear
3:53 PM 73.9 °F 37.0 °F 26% 30.07 in 10.0 mi NE 13.8 mph 19.6 mph N/A   Clear
4:53 PM 73.9 °F 36.0 °F 25% 30.06 in 10.0 mi North 10.4 mph 20.7 mph N/A   Clear
5:53 PM 73.0 °F 35.1 °F 25% 30.05 in 10.0 mi North 16.1 mph 21.9 mph N/A   Clear
6:53 PM 69.1 °F 35.1 °F 29% 30.05 in 10.0 mi North 9.2 mph - N/A   Clear
7:53 PM 62.1 °F 35.1 °F 37% 30.06 in 10.0 mi North 8.1 mph - N/A   Clear
8:53 PM 62.1 °F 34.0 °F 35% 30.06 in 10.0 mi NNE 6.9 mph - N/A   Clear
9:53 PM 59.0 °F 35.1 °F 41% 30.07 in 10.0 mi NNE 6.9 mph - N/A   Clear
10:53 PM 57.9 °F 34.0 °F 41% 30.07 in 10.0 mi NNE 6.9 mph - N/A   Clear
11:53 PM 60.1 °F 35.1 °F 39% 30.06 in 10.0 mi NE 9.2 mph - N/A   Clear